User: anonymous   Login
Location: Fort Hays State University
(38.8712°N, 99.3432°W)
Time: 18:16:34
(UTC-05:00)
Language:

ALOS - Orbit

View from above orbital plane
View from above orbital plane
View from above satellite
View from above satellite

Ground track
Ground track

The orbit data is extracted from the following two-line orbital elements,

1 28931U 06002A   15186.21166799  .00000318  00000-0  72344-4 0  9999
2 28931 097.9293 234.8944 0002338 075.9657 284.1806 14.61905989503271
Epoch (UTC): 05 July 2015 05:04:48
Eccentricity: 0.0002338
inclination: 97.9293°
perigee height: 685 km
apogee height: 688 km
right ascension of ascending node: 234.8944°
argument of perigee: 75.9657°
revolutions per day: 14.61905989
mean anomaly at epoch: 284.1806°
orbit number at epoch: 50327

The dashed part of the orbit path shows where the satellite is in the earth's shadow,  

DLR